Shreveport, LA

8:23 PM CDT on August 22, 2017 (GMT -0500)
Shreveport Regional

Weather History for KSHV - April, 2014

Change the Weather History Date:

Friday, April 11, 2014

  Actual Average Record
Temperature  
Mean Temperature 68 °F 64 °F  
Max Temperature 80 °F 76 °F 88 °F (1948)
Min Temperature 56 °F 52 °F 31 °F (1989)
Degree Days  
Heating Degree Days 0 4  
Month to date heating degree days 57 48  
Since 1 July heating degree days 2490 2181  
Cooling Degree Days 3 3  
Month to date cooling degree days 31 24  
Year to date cooling degree days 50 65  
Growing Degree Days 18 (Base 50)    
Moisture  
Dew Point 56 °F    
Average Humidity 69    
Maximum Humidity 93    
Minimum Humidity 45    
Precipitation  
Precipitation 0.00 in 0.14 in 4.00 in (2005)
Month to date precipitation 3.14 1.54  
Year to date precipitation 10.60 14.63  
Snow  
Snow 0.00 in - - ()
Month to date snowfall 0.0  
Since 1 July snowfall 1.0  
Snow Depth 0.00 in    
Sea Level Pressure  
Sea Level Pressure 30.04 in    
Wind  
Wind Speed 11 mph (South)    
Max Wind Speed 20 mph    
Max Gust Speed 25 mph    
Visibility 10 miles    
Events      
T = Trace of Precipitation, MM = Missing Value Source: NWS Daily Summary

Daily Weather History Graph

Daily Weather History Graph

Search for Another Location

Airport or City:

Trip Planner

Search our weather history database for the weather conditions in past years. The results will help you decide how hot, cold, wet, or windy it might be!

Date:

Astronomy

Apr. 11, 2014 Rise Set
Actual Time 6:50 AM CDT 7:42 PM CDT
Civil Twilight 6:25 AM CDT 8:07 PM CDT
Nautical Twilight 5:56 AM CDT 8:37 PM CDT
Astronomical Twilight 5:25 AM CDT 9:07 PM CDT
Moon 4:34 PM CDT (4/11) 4:34 AM CDT (4/11)
Length of Visible Light 13h 41m
Length of Day
12h 51m
Waxing Gibbous, 87% of the Moon is Illuminated
Apr 11
Waxing Gibbous
Apr 15
Full
Apr 22
Last Quarter
Apr 29
New
May 6
First Quarter

Hourly Weather History & Observations

Time (CDT) Temp. Dew Point Humidity Pressure Visibility Wind Dir Wind Speed Gust Speed Precip Events Conditions
12:56 AM 63.0 °F 52.0 °F 67% 30.02 in 10.0 mi South 11.5 mph - N/A   Overcast
1:56 AM 61.0 °F 54.0 °F 78% 30.03 in 10.0 mi South 9.2 mph - N/A   Overcast
2:56 AM 60.1 °F 54.0 °F 80% 30.03 in 10.0 mi South 6.9 mph - N/A   Overcast
3:56 AM 55.9 °F 53.1 °F 90% 30.04 in 10.0 mi SSE 6.9 mph - N/A   Overcast
4:39 AM 57.2 °F 53.6 °F 88% 30.04 in 10.0 mi SSE 6.9 mph - N/A   Overcast
4:56 AM 57.0 °F 54.0 °F 89% 30.04 in 10.0 mi SSE 5.8 mph - N/A   Overcast
5:56 AM 57.0 °F 55.0 °F 93% 30.04 in 10.0 mi SSE 6.9 mph - N/A   Mostly Cloudy
6:56 AM 57.9 °F 55.9 °F 93% 30.06 in 10.0 mi SSE 8.1 mph - N/A   Overcast
7:36 AM 59.0 °F 55.4 °F 88% 30.09 in 10.0 mi SSE 4.6 mph - N/A   Mostly Cloudy
7:56 AM 60.1 °F 57.0 °F 90% 30.09 in 10.0 mi SSE 6.9 mph - N/A   Overcast
8:29 AM 62.6 °F 57.2 °F 82% 30.09 in 10.0 mi SSE 9.2 mph - N/A   Mostly Cloudy
8:56 AM 63.0 °F 57.9 °F 84% 30.08 in 10.0 mi SSE 15.0 mph - N/A   Mostly Cloudy
9:09 AM 64.4 °F 57.2 °F 77% 30.08 in 10.0 mi South 11.5 mph - N/A   Scattered Clouds
9:54 AM 68.0 °F 57.2 °F 68% 30.09 in 10.0 mi South 11.5 mph 24.2 mph N/A   Mostly Cloudy
9:56 AM 68.0 °F 59.0 °F 73% 30.09 in 10.0 mi South 15.0 mph 20.7 mph N/A   Mostly Cloudy
10:56 AM 73.0 °F 57.9 °F 59% 30.10 in 10.0 mi South 12.7 mph 23.0 mph N/A   Mostly Cloudy
11:23 AM 71.6 °F 57.2 °F 60% 30.11 in 10.0 mi SSW 15.0 mph 23.0 mph N/A   Scattered Clouds
11:56 AM 75.0 °F 57.0 °F 53% 30.09 in 10.0 mi South 15.0 mph 21.9 mph N/A   Mostly Cloudy
12:56 PM 77.0 °F 57.0 °F 50% 30.07 in 10.0 mi South 15.0 mph - N/A   Partly Cloudy
1:56 PM 78.1 °F 55.9 °F 46% 30.05 in 10.0 mi SW 11.5 mph 21.9 mph N/A   Partly Cloudy
2:56 PM 79.0 °F 57.0 °F 47% 30.02 in 10.0 mi SSE 13.8 mph 23.0 mph N/A   Partly Cloudy
3:56 PM 79.0 °F 57.0 °F 47% 29.99 in 10.0 mi SSE 15.0 mph 19.6 mph N/A   Partly Cloudy
4:56 PM 79.0 °F 55.9 °F 45% 29.97 in 10.0 mi South 12.7 mph - N/A   Scattered Clouds
5:56 PM 79.0 °F 55.9 °F 45% 29.96 in 10.0 mi South 13.8 mph - N/A   Partly Cloudy
6:56 PM 77.0 °F 55.9 °F 48% 29.96 in 10.0 mi South 13.8 mph - N/A   Partly Cloudy
7:56 PM 73.0 °F 55.9 °F 55% 29.97 in 10.0 mi South 9.2 mph - N/A   Mostly Cloudy
8:56 PM 71.1 °F 55.9 °F 59% 29.98 in 10.0 mi South 9.2 mph - N/A   Scattered Clouds
9:56 PM 69.1 °F 55.9 °F 63% 30.01 in 10.0 mi South 8.1 mph - N/A   Mostly Cloudy
10:56 PM 66.0 °F 55.9 °F 70% 30.02 in 10.0 mi South 5.8 mph - N/A   Mostly Cloudy
11:56 PM 64.9 °F 57.0 °F 75% 30.02 in 10.0 mi SSE 8.1 mph - N/A   Scattered Clouds